EW3090 Weather Reports


time (UTC)temp
C
wind
direction
speed
KPH
gust
KPH
rain 1hr
cm
rain 24hr
cm
rain mn
cm
humidity
%
barometer
mb
20260906080054 18 264 0.0 0.0 0.00 0.00 0.00 87 1014.3
20260906074549 18 265 0.0 0.0 0.00 0.00 0.00 87 1014.2
20260906073043 18 265 0.0 0.0 0.00 0.00 0.00 87 1014.0
20260906071542 18 265 0.0 0.0 0.00 0.00 0.00 87 1014.3
20260906070041 18 269 0.0 0.0 0.00 0.00 0.00 87 1014.3
20260906064538 18 262 0.0 0.0 0.00 0.00 0.00 88 1014.1
20260906063044 18 263 0.0 0.0 0.00 0.00 0.00 88 1014.1
20260906061535 18 263 0.0 0.0 0.00 0.00 0.00 89 1014.0
20260906060035 19 262 0.0 0.0 0.00 0.00 0.00 89 1014.0
20260906054549 19 262 0.0 0.0 0.00 0.00 0.00 89 1014.0
20260906053029 19 254 0.0 0.0 0.00 0.00 0.00 89 1013.8
20260906051533 20 246 1.6 4.8 0.00 0.00 0.00 89 1013.8
20260906050030 20 242 3.2 6.4 0.00 0.00 0.00 89 1013.8
20260906044554 20 270 1.6 4.8 0.00 0.00 0.00 89 1013.6
20260906043052 20 270 1.6 6.4 0.00 0.00 0.00 89 1013.5
20260906041546 21 269 3.2 9.7 0.00 0.00 0.00 89 1013.3
20260906040048 21 271 1.6 11.3 0.00 0.00 0.00 89 1013.4
20260906034548 21 267 3.2 11.3 0.00 0.00 0.00 89 1013.4
20260906033039 21 262 4.8 11.3 0.00 0.00 0.00 88 1013.2
20260906031600 22 280 1.6 4.8 0.00 0.00 0.00 88 1013.1
20260906030033 22 269 0.0 6.4 0.00 0.00 0.00 88 1013.1
20260906024551 22 269 1.6 12.9 0.00 0.00 0.00 88 1013.0
20260906023029 22 259 3.2 12.9 0.00 0.00 0.00 88 1012.9
20260906021525 22 245 4.8 20.9 0.00 0.00 0.00 88 1012.7
20260906020022 23 252 6.4 19.3 0.00 0.00 0.00 88 1013.0
20260906014520 23 268 3.2 11.3 0.00 0.00 0.00 88 1012.8
20260906013017 23 262 4.8 14.5 0.00 0.00 0.00 88 1012.5
20260906011509 23 248 4.8 12.9 0.00 0.00 0.00 88 1011.8
20260906010017 23 260 4.8 12.9 0.00 0.00 0.00 88 1011.5
20260906004505 24 269 0.0 9.7 0.00 0.00 0.00 87 1011.6
20260906003006 24 272 8.0 14.5 0.00 0.00 0.00 87 1011.6
20260906001554 25 261 3.2 12.9 0.00 0.00 0.00 87 1011.3
20260906000059 25 256 9.7 17.7 0.00 0.00 0.00 87 1011.2
20260905234553 26 269 1.6 14.5 0.00 0.00 0.00 86 1011.0
20260905233044 26 249 0.0 3.2 0.00 0.00 0.00 85 1011.0
20260905231547 26 263 0.0 6.4 0.00 0.00 0.00 84 1011.1
20260905230045 27 274 0.0 11.3 0.00 0.00 0.00 83 1011.2
20260905224541 27 269 0.0 0.0 0.00 0.00 0.00 81 1011.0
20260905223038 27 257 0.0 6.4 0.00 0.00 0.00 82 1010.7
20260905221544 27 263 0.0 11.3 0.00 0.00 0.00 81 1010.8
20260905220043 27 255 0.0 0.0 0.00 0.00 0.00 83 1010.4
20260905214543 27 250 0.0 0.0 0.00 0.00 0.00 82 1010.4
20260905213045 27 256 0.0 4.8 0.00 0.00 0.00 80 1010.3
20260905211508 28 250 0.0 0.0 0.00 0.00 0.00 78 1010.0
20260905210105 28 260 0.0 0.0 0.00 0.00 0.00 77 1010.2
20260905204558 30 263 0.0 17.7 0.00 0.00 0.00 75 1010.3
20260905203050 30 244 0.0 0.0 0.00 0.00 0.00 72 1010.4
20260905201552 30 242 0.0 0.0 0.00 0.00 0.00 68 1010.7
20260905200041 31 181 0.0 0.0 0.00 0.00 0.00 67 1010.7
20260905194537 32 242 0.0 0.0 0.00 0.00 0.00 64 1010.7
20260905193038 32 197 0.0 0.0 0.00 0.00 0.00 63 1010.9
20260905191534 32 137 0.0 0.0 0.00 0.00 0.00 66 1011.1
20260905190033 31 145 0.0 0.0 0.00 0.00 0.00 66 1011.3
20260905184528 31 129 0.0 0.0 0.00 0.00 0.00 64 1011.3
20260905183032 31 138 0.0 0.0 0.00 0.00 0.00 68 1011.6
20260905181523 31 90 0.0 0.0 0.00 0.00 0.00 68 1011.7
20260905180020 30 116 0.0 0.0 0.00 0.00 0.00 71 1011.8
20260905174517 29 140 0.0 3.2 0.00 0.00 0.00 74 1011.9
20260905173046 28 138 0.0 0.0 0.00 0.00 0.00 76 1012.0
20260905171518 27 121 3.2 16.1 0.00 0.00 0.00 80 1012.2
20260905170016 26 115 0.0 0.0 0.00 0.00 0.00 84 1012.3
20260905164512 25 82 0.0 0.0 0.00 0.00 0.00 87 1012.5
20260905163013 24 117 0.0 6.4 0.00 0.00 0.00 88 1012.8
20260905161509 23 205 0.0 4.8 0.00 0.00 0.00 88 1012.9
20260905160007 23 232 0.0 3.2 0.00 0.00 0.00 87 1013.0
20260905154507 23 194 1.6 11.3 0.00 0.00 0.00 85 1013.5
20260905153037 25 232 0.0 0.0 0.00 0.00 0.00 83 1013.7
20260905151545 25 231 0.0 0.0 0.00 0.00 0.00 82 1013.3
20260905150006 25 119 0.0 0.0 0.00 0.00 0.00 80 1012.8
20260905144506 25 86 1.6 12.9 0.00 0.00 0.00 80 1012.1
20260905143004 24 87 0.0 1.6 0.00 0.00 0.00 80 1012.2
20260905141520 24 105 1.6 14.5 0.00 0.00 0.00 82 1012.2
20260905140004 23 90 0.0 4.8 0.00 0.00 0.00 86 1012.1
20260905134502 22 99 0.0 16.1 0.00 0.00 0.00 87 1012.5
20260905133034 21 84 1.6 11.3 0.00 0.00 0.00 89 1012.2
20260905131532 21 110 3.2 11.3 0.00 0.00 0.00 89 1012.4
20260905130029 20 90 1.6 6.4 0.00 0.00 0.00 89 1012.6
20260905124536 20 85 0.0 4.8 0.00 0.00 0.00 89 1012.8
20260905123028 20 244 0.0 3.2 0.00 0.00 0.00 89 1013.3
20260905121527 20 221 0.0 4.8 0.00 0.00 0.00 89 1013.0
20260905120026 19 227 0.0 1.6 0.00 0.00 0.00 89 1012.8
20260905114524 20 227 0.0 0.0 0.00 0.00 0.00 89 1012.5
20260905113024 20 240 0.0 1.6 0.00 0.00 0.00 89 1012.6
20260905111522 20 240 0.0 1.6 0.00 0.00 0.00 89 1012.8
20260905110019 20 132 0.0 1.6 0.00 0.00 0.00 89 1012.7
20260905104520 20 267 0.0 3.2 0.00 0.00 0.00 89 1012.6
20260905103018 20 275 0.0 6.4 0.00 0.00 0.00 89 1013.4
20260905101524 20 252 3.2 11.3 0.00 0.00 0.00 88 1013.2
20260905100010 21 271 3.2 11.3 0.00 0.00 0.00 87 1013.9
20260905094509 21 273 0.0 12.9 0.00 0.00 0.00 86 1013.2
20260905093006 21 240 1.6 12.9 0.00 0.00 0.00 84 1013.5
20260905091509 21 241 6.4 19.3 0.00 0.00 0.00 84 1013.3
20260905090002 21 267 6.4 22.5 0.00 0.00 0.00 86 1013.1
20260905084601 22 254 12.9 30.6 0.00 0.00 0.00 89 1012.9
20260905083059 22 73 0.0 0.0 0.00 0.00 0.00 89 1011.9
20260905081555 22 73 0.0 0.0 0.00 0.00 0.00 89 1011.7